522  
ASUS45 KBOU 291507  
RWRCO  
 
WEATHER ROUNDUP FOR COLORADO  
NATIONAL WEATHER SERVICE DENVER/BOULDER CO  
900 AM MDT MON MAY 29 2017  
 
NOTE: "FAIR" INDICATES FEW OR NO CLOUDS BELOW 12000 FEET WITH NO  
SIGNIFICANT WEATHER AND/OR S TO VISIBILITY
.  
 
COZ001>005-013-030-031-291600-   
..NORTHWEST COLORADO
 
 
 
CITY SKY/WX TMP DP RH WIND PRES REMARKS
 
CRAIG FAIR 49 37 63 CALM 30.30F  
HAYDEN FAIR 52 34 50 E3 30.30R  
MEEKER FAIR 52 32 46 CALM 30.28F  
RABBIT EARS PA FAIR 43 28 56 W5 30.44S  
STEAMBOAT SPGS FAIR 46 35 65 CALM 30.31S  
WALDEN N/A 45 32 61 CALM 30.37F  

 
 
COZ006>008-011-291600-   
..WEST CENTRAL VALLEYS
 
 
 
CITY SKY/WX TMP DP RH WIND PRES REMARKS
 
GRAND JUNCTION FAIR 63 31 30 S8 30.20S  
MONTROSE FAIR 58 27 30 CALM 30.25F  
EAGLE SUNNY 48 30 49 CALM 30.34F  
RIFLE FAIR 58 33 39 NE6 30.25F  
DELTA FAIR 58 30 33 CALM 30.23S  
NUCLA FAIR 59 23 25 CALM 30.26F  

 
 
COZ017>023-064>068-291600-   
..SOUTHWEST COLORADO
 
 
 
CITY SKY/WX TMP DP RH WIND PRES REMARKS
 
DURANGO FAIR 57 24 28 VRB3 30.26S  
CORTEZ FAIR 59 29 31 E3 30.22S  
PAGOSA SPRINGS FAIR 56 20 24 CALM 30.32S  
TELLURIDE FAIR 52 22 30 CALM 30.39S  
WOLF CREEK PAS FAIR 37 12 35 S5 30.55S  

 
 
COZ009-010-012-014-032>034-037-058>063-291600-   
..CENTRAL COLORADO
 
 
 
CITY SKY/WX TMP DP RH WIND PRES REMARKS
 
ASPEN FAIR 51 27 39 E3 30.32S  
BUENA VISTA FAIR 50 27 40 CALM 30.37R  
COPPER MTN FAIR 37 21 52 CALM 30.50R  
BERTHOUD PASS FAIR 32 23 69 W8 30.52R WCI 25  
COTTONWOOD PAS FAIR 48 28 46 E8 30.43R  
GUNNISON FAIR 46 24 42 CALM 30.36F  
KREMMLING FAIR 50 36 57 CALM 30.36F  
LEADVILLE FAIR 42 24 49 CALM 30.40S  
MONARCH PASS FAIR 37 27 65 CALM 30.60S  
SALIDA FAIR 51 30 44 N3 30.42F  
SUNLIGHT FAIR 41 23 48 CALM 30.48S  
WILKERSON PASS FAIR 37 27 65 CALM 30.51R  

 
 
COZ069>075-291600-   
..SAN LUIS VALLEY/SANGRE DE CRISTO MOUNTAINS
 
 
 
CITY SKY/WX TMP DP RH WIND PRES REMARKS
 
ALAMOSA FAIR 52 29 41 S5 30.32S  
DEL NORTE FAIR 52 26 36 SE3 30.35S  
LA VETA PASS FAIR 43 32 65 N7 30.54R  
SAGUACHE FAIR 54 23 30 CALM 30.34S  

 
 
COZ035-036-038>040-291600-   
..NORTHERN COLORADO FRONT RANGE
 
 
 
CITY SKY/WX TMP DP RH WIND PRES REMARKS
 
DENVER INTL AP FAIR 58 43 57 W3 30.28R  
DMNS CITY PARK N/A 59 38 45 E8 30.27S  
AURORA MOSUNNY 58 40 52 CALM 30.29R  
FRONT RANGE AP MOSUNNY 59 45 58 W5 30.29R  
ERIE MUNI ARPT FAIR 58 45 60 CALM 30.26F  
BOULDER MUN AP FAIR 59 43 55 E3 30.27S  
CENTENNIAL FAIR 57 40 52 SE3 30.29S  
BROOMFIELD MOSUNNY 59 41 51 SE5 30.29R  
FORT COLLINS FAIR 60 42 51 CALM 30.27R  
LONGMONT PTSUNNY 60 43 52 CALM 30.28R HAZE  

 
 
COZ041-046-047-076>085-087-088-291600-   
..PIKES PEAK/PALMER DIVIDE AND SOUTHERN FOOTHILLS
 
 
 
CITY SKY/WX TMP DP RH WIND PRES REMARKS
 
COLO. SPRINGS FAIR 58 38 47 SW5 30.31S  
A. F. ACADEMY FAIR 57 37 47 SE3 30.31S  
SCHRIEVER AFB FAIR 58 35 41 SE5 30.31S  
CHEYENNE MTN FAIR 55 36 47 SE18 30.27F  
ELLICOTT FAIR N/A N/A N/A SW8 30.29S  
FALCON FAIR 56 36 46 SE5 30.34S  
FORT CARSON FAIR 60 37 43 SE7 30.29F  
LIMON FAIR 59 42 53 VRB7 30.28S  
MONUMENT HILL FAIR 52 37 58 SE6 30.34F  
CANON CITY NOT AVBL  
WALSENBURG FAIR 57 43 58 CALM 30.31S  
TRINIDAD FAIR 57 39 51 NW5 30.30S  

 
 
COZ042>045-048>051-090-091-291600-   
..NORTHEAST COLORADO
 
 
 
CITY SKY/WX TMP DP RH WIND PRES REMARKS
 
GREELEY ARPT FAIR 60 45 57 CALM 30.27R  
AKRON CLOUDY 59 43 55 N9 30.25S  
BURLINGTON FAIR 64 44 48 N13 30.22S  
WRAY FAIR 64 45 48 MISG 30.20S  
YUMA PTSUNNY 63 32 31 N10 30.22S  
STERLING NOT AVBL  
HOLYOKE NOT AVBL  
FORT MORGAN FAIR 63 42 46 N6 30.26S  

 
 
COZ086-089-092>099-291600-   
..SOUTHEAST COLORADO
 
 
 
CITY SKY/WX TMP DP RH WIND PRES REMARKS
 
PUEBLO FAIR 62 43 49 SW3 30.26S  
LA JUNTA FAIR 62 45 53 MISG 30.25S  
LAMAR PTSUNNY 60 49 66 W9 30.23R  
SPRINGFIELD N/A 61 43 51 E3 30.25R  

 
 
 
CLICK HERE TO GO TO PREVIOUS BULLETINS.

The Nexlab CO Page Main Text Page